TIME, SPID DISTINCT USER LAST WEEK
"Wed, 22 Mar 2017 07:00:04 +0100", 347
"Thu, 23 Mar 2017 07:00:04 +0100", 340
"Thu, 23 Mar 2017 11:30:52 +0100", 333
"Fri, 24 Mar 2017 07:00:04 +0100", 335
"Sat, 25 Mar 2017 07:00:04 +0100", 325
"Sun, 26 Mar 2017 07:00:04 +0200", 324
"Mon, 27 Mar 2017 07:00:04 +0200", 328
"Tue, 28 Mar 2017 07:00:04 +0200", 327
"Wed, 29 Mar 2017 07:00:04 +0200", 321
"Thu, 30 Mar 2017 07:00:04 +0200", 334
"Fri, 31 Mar 2017 07:00:04 +0200", 332
"Sat, 01 Apr 2017 07:00:04 +0200", 340
"Sun, 02 Apr 2017 07:00:04 +0200", 341
"Mon, 03 Apr 2017 07:00:04 +0200", 355
"Tue, 04 Apr 2017 07:00:04 +0200", 373
"Wed, 05 Apr 2017 07:00:04 +0200", 370
"Thu, 06 Apr 2017 07:00:04 +0200", 369
"Fri, 07 Apr 2017 07:00:05 +0200", 377
"Sat, 08 Apr 2017 07:00:04 +0200", 377
"Sun, 09 Apr 2017 07:00:04 +0200", 373
"Mon, 10 Apr 2017 07:00:04 +0200", 364
"Tue, 11 Apr 2017 07:00:04 +0200", 350
"Wed, 12 Apr 2017 07:00:04 +0200", 354
"Thu, 13 Apr 2017 07:00:04 +0200", 345
"Fri, 14 Apr 2017 07:00:04 +0200", 323
"Sat, 15 Apr 2017 07:00:04 +0200", 311
"Sun, 16 Apr 2017 07:00:04 +0200", 316
"Mon, 17 Apr 2017 07:00:04 +0200", 313
"Tue, 18 Apr 2017 07:00:04 +0200", 281
"Wed, 19 Apr 2017 07:00:04 +0200", 280
"Thu, 20 Apr 2017 07:00:04 +0200", 306
"Fri, 21 Apr 2017 07:00:04 +0200", 324
"Sat, 22 Apr 2017 07:00:04 +0200", 348
"Sun, 23 Apr 2017 07:00:04 +0200", 352
"Tue, 25 Apr 2017 07:00:04 +0200", 367
"Wed, 26 Apr 2017 07:00:04 +0200", 342
"Thu, 27 Apr 2017 07:00:04 +0200", 333
"Fri, 28 Apr 2017 07:00:04 +0200", 337
"Sat, 29 Apr 2017 07:00:04 +0200", 319
"Sun, 30 Apr 2017 07:00:04 +0200", 322
"Mon, 01 May 2017 07:00:04 +0200", 322
"Tue, 02 May 2017 07:00:04 +0200", 309
"Wed, 03 May 2017 07:00:04 +0200", 356
"Thu, 04 May 2017 07:00:05 +0200", 354
"Fri, 05 May 2017 07:00:04 +0200", 350
"Sat, 06 May 2017 07:00:04 +0200", 359
"Sun, 07 May 2017 07:00:04 +0200", 368
"Mon, 08 May 2017 07:00:04 +0200", 364
"Tue, 09 May 2017 07:00:04 +0200", 415
"Wed, 10 May 2017 07:00:04 +0200", 426
"Thu, 11 May 2017 07:00:04 +0200", 440
"Fri, 12 May 2017 07:00:04 +0200", 468
"Sat, 13 May 2017 07:00:04 +0200", 474
"Sun, 14 May 2017 07:00:05 +0200", 482
"Mon, 15 May 2017 07:00:04 +0200", 486
"Tue, 16 May 2017 07:00:04 +0200", 496
"Wed, 17 May 2017 07:00:04 +0200", 493
"Thu, 18 May 2017 07:00:04 +0200", 491
"Fri, 19 May 2017 07:00:04 +0200", 476
"Sat, 20 May 2017 07:00:04 +0200", 461
"Sun, 21 May 2017 07:00:04 +0200", 452
"Mon, 22 May 2017 07:00:04 +0200", 457
"Tue, 23 May 2017 07:00:04 +0200", 468
"Wed, 24 May 2017 07:00:04 +0200", 476
"Thu, 25 May 2017 07:00:04 +0200", 483
"Fri, 26 May 2017 07:00:46 +0200", 482
"Sat, 27 May 2017 07:00:05 +0200", 485
"Sun, 28 May 2017 07:00:04 +0200", 484
"Mon, 29 May 2017 07:00:04 +0200", 480
"Tue, 30 May 2017 07:00:04 +0200", 498
"Wed, 31 May 2017 07:00:04 +0200", 505
"Thu, 01 Jun 2017 07:00:04 +0200", 527
"Fri, 02 Jun 2017 07:00:04 +0200", 534
"Sat, 03 Jun 2017 07:00:04 +0200", 488
"Sun, 04 Jun 2017 07:00:05 +0200", 477
"Mon, 05 Jun 2017 07:00:05 +0200", 479
"Tue, 06 Jun 2017 07:00:04 +0200", 501
"Wed, 07 Jun 2017 07:00:05 +0200", 491
"Thu, 08 Jun 2017 07:00:04 +0200", 486
"Fri, 09 Jun 2017 07:00:04 +0200", 491
"Sat, 10 Jun 2017 07:00:04 +0200", 517
"Sun, 11 Jun 2017 07:00:04 +0200", 521
"Mon, 12 Jun 2017 07:00:04 +0200", 528
"Tue, 13 Jun 2017 07:00:04 +0200", 531
"Wed, 14 Jun 2017 07:00:04 +0200", 501
"Thu, 15 Jun 2017 07:00:04 +0200", 462
"Fri, 16 Jun 2017 07:00:04 +0200", 437
"Sat, 17 Jun 2017 07:00:04 +0200", 418
"Sun, 18 Jun 2017 07:00:04 +0200", 418
"Mon, 19 Jun 2017 07:00:05 +0200", 409
"Tue, 20 Jun 2017 07:00:04 +0200", 392
"Wed, 21 Jun 2017 07:00:04 +0200", 377
"Thu, 22 Jun 2017 07:00:04 +0200", 370
"Fri, 23 Jun 2017 07:00:04 +0200", 365
"Sat, 24 Jun 2017 07:00:04 +0200", 364
"Sun, 25 Jun 2017 07:00:04 +0200", 368
"Mon, 26 Jun 2017 07:00:04 +0200", 369
"Tue, 27 Jun 2017 07:00:04 +0200", 379
"Wed, 28 Jun 2017 07:00:04 +0200", 360
"Thu, 29 Jun 2017 07:00:04 +0200", 361
"Fri, 30 Jun 2017 07:00:04 +0200", 352
"Sat, 01 Jul 2017 07:00:04 +0200", 350
"Sun, 02 Jul 2017 07:00:05 +0200", 354
"Mon, 03 Jul 2017 07:00:04 +0200", 357
"Tue, 04 Jul 2017 07:00:04 +0200", 387
"Wed, 05 Jul 2017 07:00:04 +0200", 414
"Thu, 06 Jul 2017 07:00:04 +0200", 429
"Fri, 07 Jul 2017 07:00:04 +0200", 451
"Sat, 08 Jul 2017 07:00:04 +0200", 474
"Sun, 09 Jul 2017 07:00:04 +0200", 475
"Mon, 10 Jul 2017 07:00:04 +0200", 481
"Tue, 11 Jul 2017 07:00:05 +0200", 487
"Wed, 12 Jul 2017 07:00:04 +0200", 480
"Thu, 13 Jul 2017 07:00:05 +0200", 474
"Fri, 14 Jul 2017 07:00:04 +0200", 475
"Sat, 15 Jul 2017 07:00:04 +0200", 452
"Sun, 16 Jul 2017 07:00:05 +0200", 457
"Mon, 17 Jul 2017 07:00:05 +0200", 466
"Tue, 18 Jul 2017 07:00:05 +0200", 466
"Wed, 19 Jul 2017 07:00:05 +0200", 458
"Thu, 20 Jul 2017 07:00:05 +0200", 454
"Sat, 22 Jul 2017 07:00:04 +0200", 462
"Sun, 23 Jul 2017 07:00:04 +0200", 462
"Mon, 24 Jul 2017 07:00:04 +0200", 454
"Wed, 26 Jul 2017 07:00:05 +0200", 539
"Thu, 27 Jul 2017 07:00:04 +0200", 574
"Fri, 28 Jul 2017 07:00:05 +0200", 605
"Sat, 29 Jul 2017 07:00:04 +0200", 604
"Sun, 30 Jul 2017 07:00:05 +0200", 616
"Mon, 31 Jul 2017 07:00:05 +0200", 634
"Tue, 01 Aug 2017 07:00:05 +0200", 636
"Wed, 02 Aug 2017 07:00:04 +0200", 593
"Thu, 03 Aug 2017 07:00:04 +0200", 565
"Fri, 04 Aug 2017 07:00:04 +0200", 562
"Sat, 05 Aug 2017 07:00:05 +0200", 551
"Sun, 06 Aug 2017 07:00:04 +0200", 541
"Mon, 07 Aug 2017 07:00:04 +0200", 527
"Tue, 08 Aug 2017 07:00:04 +0200", 486
"Wed, 09 Aug 2017 07:00:05 +0200", 478
"Thu, 10 Aug 2017 07:00:04 +0200", 454
"Fri, 11 Aug 2017 07:00:04 +0200", 419
"Sat, 12 Aug 2017 07:00:04 +0200", 392
"Sun, 13 Aug 2017 07:00:04 +0200", 379
"Mon, 14 Aug 2017 07:00:04 +0200", 372
"Tue, 15 Aug 2017 07:00:04 +0200", 351
"Wed, 16 Aug 2017 07:00:04 +0200", 299
"Thu, 17 Aug 2017 07:00:04 +0200", 277
"Fri, 18 Aug 2017 07:00:04 +0200", 253
"Sat, 19 Aug 2017 07:00:04 +0200", 235
"Sun, 20 Aug 2017 07:00:04 +0200", 231
"Mon, 21 Aug 2017 07:00:04 +0200", 246
"Tue, 22 Aug 2017 07:00:04 +0200", 275
"Wed, 23 Aug 2017 07:00:04 +0200", 320
"Thu, 24 Aug 2017 07:00:04 +0200", 351
"Fri, 25 Aug 2017 07:00:05 +0200", 358
"Sat, 26 Aug 2017 07:00:04 +0200", 370
"Sun, 27 Aug 2017 07:00:04 +0200", 379
"Mon, 28 Aug 2017 07:00:04 +0200", 370
"Tue, 29 Aug 2017 07:00:05 +0200", 409
"Wed, 30 Aug 2017 07:00:04 +0200", 428
"Fri, 01 Sep 2017 07:00:04 +0200", 468
"Sat, 02 Sep 2017 07:00:04 +0200", 487
"Sun, 03 Sep 2017 07:00:05 +0200", 490
"Mon, 04 Sep 2017 07:00:05 +0200", 486
"Tue, 05 Sep 2017 07:00:04 +0200", 493
"Wed, 06 Sep 2017 07:00:04 +0200", 512
"Thu, 07 Sep 2017 07:00:04 +0200", 524
"Fri, 08 Sep 2017 07:00:04 +0200", 505
"Sat, 09 Sep 2017 07:00:04 +0200", 515
"Sun, 10 Sep 2017 07:00:04 +0200", 528
"Mon, 11 Sep 2017 07:00:04 +0200", 542
"Wed, 13 Sep 2017 07:00:04 +0200", 551
"Thu, 14 Sep 2017 07:01:42 +0200", 568
"Fri, 15 Sep 2017 07:01:51 +0200", 567
"Sat, 16 Sep 2017 07:02:52 +0200", 574
"Sun, 17 Sep 2017 07:00:04 +0200", 593
"Mon, 18 Sep 2017 07:00:04 +0200", 601
"Tue, 19 Sep 2017 07:00:04 +0200", 625
"Wed, 20 Sep 2017 07:00:04 +0200", 649
"Thu, 21 Sep 2017 07:00:04 +0200", 659
"Fri, 22 Sep 2017 07:00:05 +0200", 660
"Sat, 23 Sep 2017 07:01:36 +0200", 660
"Sun, 24 Sep 2017 07:02:11 +0200", 650
"Mon, 25 Sep 2017 07:02:28 +0200", 652
"Tue, 26 Sep 2017 07:02:21 +0200", 627
"Wed, 27 Sep 2017 07:01:05 +0200", 631
"Thu, 28 Sep 2017 07:02:13 +0200", 618
"Fri, 29 Sep 2017 07:00:55 +0200", 623
"Sat, 30 Sep 2017 07:02:23 +0200", 630
"Sun, 01 Oct 2017 07:01:08 +0200", 639
"Mon, 02 Oct 2017 07:01:03 +0200", 648
"Tue, 03 Oct 2017 07:00:58 +0200", 670
"Wed, 04 Oct 2017 07:01:35 +0200", 671
"Thu, 05 Oct 2017 07:01:00 +0200", 671
"Fri, 06 Oct 2017 07:00:05 +0200", 662
"Sat, 07 Oct 2017 07:00:04 +0200", 637
"Sun, 08 Oct 2017 07:00:04 +0200", 641
"Mon, 09 Oct 2017 07:00:04 +0200", 644
"Tue, 10 Oct 2017 07:00:04 +0200", 627
"Wed, 11 Oct 2017 07:00:04 +0200", 630
"Thu, 12 Oct 2017 07:00:05 +0200", 617
"Fri, 13 Oct 2017 07:00:05 +0200", 612
"Sat, 14 Oct 2017 07:00:04 +0200", 619
"Sun, 15 Oct 2017 07:00:04 +0200", 627
"Mon, 16 Oct 2017 07:00:04 +0200", 619
"Tue, 17 Oct 2017 07:00:04 +0200", 625
"Wed, 18 Oct 2017 07:00:04 +0200", 608
"Thu, 19 Oct 2017 07:00:04 +0200", 603
"Fri, 20 Oct 2017 07:00:05 +0200", 611
"Sat, 21 Oct 2017 07:00:04 +0200", 609
"Sun, 22 Oct 2017 07:00:05 +0200", 599
"Mon, 23 Oct 2017 07:00:04 +0200", 602
"Tue, 24 Oct 2017 07:00:04 +0200", 629
"Wed, 25 Oct 2017 07:00:04 +0200", 632
"Thu, 26 Oct 2017 07:00:05 +0200", 645
"Fri, 27 Oct 2017 07:00:05 +0200", 635
"Sat, 28 Oct 2017 07:00:04 +0200", 672
"Sun, 29 Oct 2017 07:00:05 +0100", 680
"Mon, 30 Oct 2017 07:00:04 +0100", 671
"Tue, 31 Oct 2017 07:00:04 +0100", 671
"Wed, 01 Nov 2017 07:00:04 +0100", 667
"Thu, 02 Nov 2017 07:00:04 +0100", 617
"Fri, 03 Nov 2017 13:40:34 +0100", 572
"Sat, 04 Nov 2017 07:00:39 +0100", 582
"Sun, 05 Nov 2017 07:00:49 +0100", 581
"Mon, 06 Nov 2017 07:00:43 +0100", 580
"Tue, 07 Nov 2017 07:00:55 +0100", 607
"Wed, 08 Nov 2017 07:00:52 +0100", 644
"Thu, 09 Nov 2017 07:00:32 +0100", 737
"Fri, 10 Nov 2017 07:00:20 +0100", 757
"Sat, 11 Nov 2017 07:00:26 +0100", 799
"Sun, 12 Nov 2017 07:00:22 +0100", 798
"Mon, 13 Nov 2017 07:00:20 +0100", 812
"Tue, 14 Nov 2017 07:01:03 +0100", 834
"Wed, 15 Nov 2017 07:00:17 +0100", 957
"Thu, 16 Nov 2017 07:00:17 +0100", 973
"Fri, 17 Nov 2017 07:00:39 +0100", 988
"Sat, 18 Nov 2017 07:00:21 +0100", 982
"Sun, 19 Nov 2017 07:00:16 +0100", 980
"Mon, 20 Nov 2017 07:00:22 +0100", 976
"Tue, 21 Nov 2017 07:00:19 +0100", 971
"Wed, 22 Nov 2017 07:00:32 +0100", 871
"Thu, 23 Nov 2017 07:00:33 +0100", 782
"Fri, 24 Nov 2017 07:00:18 +0100", 741
"Sat, 25 Nov 2017 07:00:05 +0100", 734
"Sun, 26 Nov 2017 07:00:17 +0100", 741
"Mon, 27 Nov 2017 07:00:13 +0100", 743
"Tue, 28 Nov 2017 07:00:23 +0100", 736
"Wed, 29 Nov 2017 07:00:34 +0100", 736
"Thu, 30 Nov 2017 07:00:31 +0100", 761
"Fri, 01 Dec 2017 07:00:28 +0100", 768
"Sat, 02 Dec 2017 07:00:19 +0100", 762
"Sun, 03 Dec 2017 07:00:19 +0100", 740
"Mon, 04 Dec 2017 07:00:19 +0100", 729
"Tue, 05 Dec 2017 07:00:40 +0100", 767
"Wed, 06 Dec 2017 07:00:26 +0100", 764
"Thu, 07 Dec 2017 07:00:23 +0100", 772
"Fri, 08 Dec 2017 07:00:22 +0100", 761
"Sat, 09 Dec 2017 07:00:27 +0100", 725
"Sun, 10 Dec 2017 07:00:20 +0100", 731
"Mon, 11 Dec 2017 07:00:18 +0100", 739
"Tue, 12 Dec 2017 07:00:21 +0100", 736
"Wed, 13 Dec 2017 07:00:24 +0100", 751
"Thu, 14 Dec 2017 07:00:27 +0100", 768
"Fri, 15 Dec 2017 07:00:26 +0100", 770
"Sat, 16 Dec 2017 07:00:23 +0100", 817
"Sun, 17 Dec 2017 07:00:21 +0100", 840
"Mon, 18 Dec 2017 07:01:25 +0100", 831
"Tue, 19 Dec 2017 07:01:03 +0100", 804
"Wed, 20 Dec 2017 07:01:01 +0100", 774
"Thu, 21 Dec 2017 07:01:28 +0100", 758
"Fri, 22 Dec 2017 07:01:10 +0100", 764
"Sat, 23 Dec 2017 07:00:46 +0100", 775
"Sun, 24 Dec 2017 07:00:32 +0100", 768
"Mon, 25 Dec 2017 07:00:34 +0100", 752
"Tue, 26 Dec 2017 07:00:36 +0100", 659
"Wed, 27 Dec 2017 07:00:33 +0100", 587
"Thu, 28 Dec 2017 07:00:31 +0100", 563
"Fri, 29 Dec 2017 07:00:36 +0100", 546
"Sat, 30 Dec 2017 07:00:39 +0100", 529
"Sun, 31 Dec 2017 07:00:34 +0100", 556
"Mon, 01 Jan 2018 07:00:29 +0100", 558
"Tue, 02 Jan 2018 07:00:32 +0100", 592
"Wed, 03 Jan 2018 07:00:21 +0100", 694
"Thu, 04 Jan 2018 07:00:32 +0100", 703
"Fri, 05 Jan 2018 07:00:49 +0100", 712
"Sat, 06 Jan 2018 07:00:32 +0100", 743
"Sun, 07 Jan 2018 07:00:29 +0100", 721
"Mon, 08 Jan 2018 07:00:27 +0100", 746
"Tue, 09 Jan 2018 07:00:38 +0100", 889
"Wed, 10 Jan 2018 07:00:24 +0100", 918
"Thu, 11 Jan 2018 07:00:33 +0100", 971
"Fri, 12 Jan 2018 07:00:28 +0100", 984
"Sat, 13 Jan 2018 07:01:00 +0100", 996
"Sun, 14 Jan 2018 07:00:38 +0100", 1021
"Mon, 15 Jan 2018 07:00:29 +0100", 1035
"Tue, 16 Jan 2018 07:00:42 +0100", 1031
"Wed, 17 Jan 2018 07:00:34 +0100", 1020
"Thu, 18 Jan 2018 07:00:38 +0100", 972
"Fri, 19 Jan 2018 07:00:33 +0100", 1004
"Sat, 20 Jan 2018 07:00:33 +0100", 1019
"Sun, 21 Jan 2018 07:00:38 +0100", 1039
"Mon, 22 Jan 2018 07:00:31 +0100", 1045
"Tue, 23 Jan 2018 07:00:34 +0100", 1035
"Wed, 24 Jan 2018 07:00:34 +0100", 1051
"Thu, 25 Jan 2018 07:00:35 +0100", 1064
"Fri, 26 Jan 2018 07:00:30 +0100", 1079
"Sat, 27 Jan 2018 07:00:39 +0100", 1083
"Sun, 28 Jan 2018 07:00:27 +0100", 1087
"Mon, 29 Jan 2018 07:00:26 +0100", 1094
"Tue, 30 Jan 2018 07:00:46 +0100", 1128
"Wed, 31 Jan 2018 07:00:40 +0100", 1181
"Thu, 01 Feb 2018 07:00:34 +0100", 1215
"Fri, 02 Feb 2018 07:00:36 +0100", 1191
"Sat, 03 Feb 2018 07:00:44 +0100", 1175
"Sun, 04 Feb 2018 07:00:29 +0100", 1159
"Mon, 05 Feb 2018 07:00:37 +0100", 1134
"Tue, 06 Feb 2018 07:00:23 +0100", 1130
"Wed, 07 Feb 2018 07:00:38 +0100", 1082
"Thu, 08 Feb 2018 07:00:23 +0100", 1003
"Fri, 09 Feb 2018 07:00:27 +0100", 1004
"Sat, 10 Feb 2018 07:00:43 +0100", 970
"Sun, 11 Feb 2018 07:00:29 +0100", 964
"Mon, 12 Feb 2018 07:00:27 +0100", 965
"Tue, 13 Feb 2018 07:00:24 +0100", 959
"Wed, 14 Feb 2018 07:00:31 +0100", 957
"Thu, 15 Feb 2018 07:00:43 +0100", 936
"Fri, 16 Feb 2018 07:00:34 +0100", 945
"Sat, 17 Feb 2018 07:00:45 +0100", 975
"Sun, 18 Feb 2018 07:00:28 +0100", 1011
"Mon, 19 Feb 2018 07:00:24 +0100", 1037
"Tue, 20 Feb 2018 07:00:41 +0100", 1073
"Wed, 21 Feb 2018 07:00:53 +0100", 1070
"Thu, 22 Feb 2018 07:00:37 +0100", 1089
"Fri, 23 Feb 2018 07:00:33 +0100", 1075
"Sat, 24 Feb 2018 07:00:43 +0100", 1052
"Sun, 25 Feb 2018 07:00:22 +0100", 1036
"Mon, 26 Feb 2018 07:00:26 +0100", 1027
"Tue, 27 Feb 2018 07:00:28 +0100", 997
"Wed, 28 Feb 2018 07:00:38 +0100", 992
"Thu, 01 Mar 2018 07:00:50 +0100", 979
"Fri, 02 Mar 2018 07:00:43 +0100", 974
"Sat, 03 Mar 2018 07:00:49 +0100", 969
"Sun, 04 Mar 2018 07:01:21 +0100", 963
"Mon, 05 Mar 2018 07:00:50 +0100", 941
"Tue, 06 Mar 2018 07:00:45 +0100", 964
"Wed, 07 Mar 2018 07:00:47 +0100", 960
"Thu, 08 Mar 2018 07:00:47 +0100", 967
"Fri, 09 Mar 2018 07:00:47 +0100", 972
"Sat, 10 Mar 2018 07:00:48 +0100", 999
"Sun, 11 Mar 2018 07:00:31 +0100", 1019
"Mon, 12 Mar 2018 07:00:28 +0100", 1061
"Tue, 13 Mar 2018 07:00:51 +0100", 1088
"Wed, 14 Mar 2018 07:00:55 +0100", 1114
"Thu, 15 Mar 2018 07:00:28 +0100", 1093
"Fri, 16 Mar 2018 07:00:44 +0100", 1086
"Sat, 17 Mar 2018 07:01:01 +0100", 1067
"Sun, 18 Mar 2018 07:00:38 +0100", 1077
"Mon, 19 Mar 2018 07:00:32 +0100", 1083
"Tue, 20 Mar 2018 07:00:33 +0100", 1075
"Wed, 21 Mar 2018 07:00:59 +0100", 1095
"Thu, 22 Mar 2018 07:00:50 +0100", 1107
"Fri, 23 Mar 2018 07:00:36 +0100", 1128
"Sat, 24 Mar 2018 07:00:45 +0100", 1120
"Sun, 25 Mar 2018 07:00:52 +0200", 1118
"Mon, 26 Mar 2018 07:00:40 +0200", 1094
"Tue, 27 Mar 2018 07:00:22 +0200", 1085
"Wed, 28 Mar 2018 07:00:19 +0200", 1079
"Thu, 29 Mar 2018 07:00:18 +0200", 1039
"Fri, 30 Mar 2018 07:00:16 +0200", 1037
"Sat, 31 Mar 2018 07:00:19 +0200", 1042
"Sun, 01 Apr 2018 07:00:18 +0200", 1038
"Mon, 02 Apr 2018 07:00:18 +0200", 1022
"Tue, 03 Apr 2018 07:00:20 +0200", 914
"Wed, 04 Apr 2018 07:00:18 +0200", 942
"Thu, 05 Apr 2018 07:00:18 +0200", 1039
"Fri, 06 Apr 2018 07:00:19 +0200", 1054
"Sat, 07 Apr 2018 07:00:22 +0200", 1074
"Sun, 08 Apr 2018 07:00:27 +0200", 1105
"Mon, 09 Apr 2018 07:00:18 +0200", 1140
"Tue, 10 Apr 2018 07:00:20 +0200", 1247
"Wed, 11 Apr 2018 07:00:22 +0200", 1289
"Thu, 12 Apr 2018 07:00:20 +0200", 1281
"Fri, 13 Apr 2018 07:00:23 +0200", 1310
"Sat, 14 Apr 2018 07:00:25 +0200", 1284
"Sun, 15 Apr 2018 07:00:19 +0200", 1271
"Mon, 16 Apr 2018 07:00:18 +0200", 1275
"Tue, 17 Apr 2018 07:00:21 +0200", 1255
"Wed, 18 Apr 2018 07:00:22 +0200", 1218
"Thu, 19 Apr 2018 07:00:20 +0200", 1177
"Fri, 20 Apr 2018 07:00:23 +0200", 1151
"Sat, 21 Apr 2018 07:00:23 +0200", 1153
"Sun, 22 Apr 2018 07:00:24 +0200", 1158
"Mon, 23 Apr 2018 07:00:19 +0200", 1152
"Tue, 24 Apr 2018 07:00:20 +0200", 1167
"Wed, 25 Apr 2018 07:00:23 +0200", 1173
"Thu, 26 Apr 2018 07:00:24 +0200", 1084
"Fri, 27 Apr 2018 07:00:24 +0200", 1137
"Sat, 28 Apr 2018 07:00:28 +0200", 1139
"Sun, 29 Apr 2018 07:00:17 +0200", 1162
"Mon, 30 Apr 2018 07:00:20 +0200", 1151
"Tue, 01 May 2018 07:00:22 +0200", 1112
"Wed, 02 May 2018 07:00:19 +0200", 1008
"Thu, 03 May 2018 07:00:19 +0200", 1183
"Fri, 04 May 2018 07:00:19 +0200", 1209
"Sat, 05 May 2018 07:00:19 +0200", 1236
"Sun, 06 May 2018 07:00:25 +0200", 1254
"Mon, 07 May 2018 07:00:22 +0200", 1283
"Tue, 08 May 2018 07:00:21 +0200", 1379
"Wed, 09 May 2018 07:00:22 +0200", 1509
"Thu, 10 May 2018 07:00:17 +0200", 1524
"Fri, 11 May 2018 07:00:19 +0200", 1522
"Sat, 12 May 2018 07:00:27 +0200", 1491
"Sun, 13 May 2018 07:00:28 +0200", 1477
"Mon, 14 May 2018 07:00:20 +0200", 1467
"Tue, 15 May 2018 07:00:23 +0200", 1498
"Wed, 16 May 2018 07:00:22 +0200", 1527
"Thu, 17 May 2018 07:00:25 +0200", 1524
"Fri, 18 May 2018 07:00:24 +0200", 1500
"Sat, 19 May 2018 07:00:20 +0200", 1494
"Sun, 20 May 2018 07:00:22 +0200", 1500
"Mon, 21 May 2018 07:00:17 +0200", 1513
"Tue, 22 May 2018 07:00:19 +0200", 1540
"Wed, 23 May 2018 07:00:20 +0200", 1534
"Thu, 24 May 2018 07:00:23 +0200", 1547
"Fri, 25 May 2018 07:00:23 +0200", 1510
"Sat, 26 May 2018 07:00:20 +0200", 1485
"Sun, 27 May 2018 07:00:20 +0200", 1487
"Mon, 28 May 2018 07:00:21 +0200", 1486
"Tue, 29 May 2018 07:00:23 +0200", 1489
"Wed, 30 May 2018 07:00:23 +0200", 1522
"Thu, 31 May 2018 07:00:23 +0200", 1538
"Fri, 01 Jun 2018 07:00:23 +0200", 1549
"Sat, 02 Jun 2018 07:00:23 +0200", 1541
"Sun, 03 Jun 2018 07:00:21 +0200", 1534
"Mon, 04 Jun 2018 07:00:26 +0200", 1552
"Tue, 05 Jun 2018 07:00:22 +0200", 1547
"Wed, 06 Jun 2018 07:00:25 +0200", 1548
"Thu, 07 Jun 2018 07:00:30 +0200", 1513
"Fri, 08 Jun 2018 07:00:24 +0200", 1486
"Sat, 09 Jun 2018 07:00:24 +0200", 1489
"Sun, 10 Jun 2018 07:00:28 +0200", 1507
"Mon, 11 Jun 2018 07:00:25 +0200", 1493
"Tue, 12 Jun 2018 07:00:22 +0200", 1478
"Wed, 13 Jun 2018 07:00:32 +0200", 1475
"Thu, 14 Jun 2018 07:00:28 +0200", 1508
"Fri, 15 Jun 2018 07:00:27 +0200", 1519
"Sat, 16 Jun 2018 07:00:24 +0200", 1542
"Sun, 17 Jun 2018 07:00:25 +0200", 1526
"Mon, 18 Jun 2018 07:00:24 +0200", 1524
"Tue, 19 Jun 2018 07:00:24 +0200", 1498
"Wed, 20 Jun 2018 07:00:25 +0200", 1513
"Thu, 21 Jun 2018 07:00:25 +0200", 1472
"Fri, 22 Jun 2018 07:00:33 +0200", 1448
"Sat, 23 Jun 2018 07:00:30 +0200", 1485
"Sun, 24 Jun 2018 07:00:30 +0200", 1498
"Mon, 25 Jun 2018 07:00:30 +0200", 1504
"Tue, 26 Jun 2018 07:00:27 +0200", 1532
"Wed, 27 Jun 2018 07:00:30 +0200", 1523
"Thu, 28 Jun 2018 07:00:24 +0200", 1573
"Fri, 29 Jun 2018 07:00:24 +0200", 1604
"Sat, 30 Jun 2018 07:00:29 +0200", 1580
"Sun, 01 Jul 2018 07:00:23 +0200", 1632
"Mon, 02 Jul 2018 07:00:22 +0200", 1659
"Tue, 03 Jul 2018 07:00:26 +0200", 1716
"Wed, 04 Jul 2018 07:00:24 +0200", 1748
"Thu, 05 Jul 2018 07:00:24 +0200", 1761
"Fri, 06 Jul 2018 07:00:29 +0200", 1793
"Sat, 07 Jul 2018 07:00:31 +0200", 1792
"Sun, 08 Jul 2018 07:00:26 +0200", 1756
"Mon, 09 Jul 2018 07:00:24 +0200", 1729
"Tue, 10 Jul 2018 07:00:25 +0200", 1678
"Wed, 11 Jul 2018 07:00:23 +0200", 1662
"Thu, 12 Jul 2018 07:00:27 +0200", 1672
"Fri, 13 Jul 2018 07:00:28 +0200", 1669
"Sat, 14 Jul 2018 07:00:26 +0200", 1645
"Sun, 15 Jul 2018 07:00:28 +0200", 1672
"Mon, 16 Jul 2018 07:00:28 +0200", 1685
"Tue, 17 Jul 2018 07:00:28 +0200", 1701
"Wed, 18 Jul 2018 07:00:24 +0200", 1697
"Thu, 19 Jul 2018 07:00:23 +0200", 1725
"Fri, 20 Jul 2018 07:00:24 +0200", 1774
"Sat, 21 Jul 2018 07:00:24 +0200", 1824
"Sun, 22 Jul 2018 07:00:25 +0200", 1820
"Mon, 23 Jul 2018 07:00:23 +0200", 1843
"Tue, 24 Jul 2018 07:00:26 +0200", 1808
"Wed, 25 Jul 2018 07:00:25 +0200", 1823
"Thu, 26 Jul 2018 07:00:27 +0200", 1790
"Fri, 27 Jul 2018 07:00:28 +0200", 1763
"Sat, 28 Jul 2018 07:00:29 +0200", 1699
"Sun, 29 Jul 2018 07:00:26 +0200", 1682
"Mon, 30 Jul 2018 07:00:23 +0200", 1655
"Tue, 31 Jul 2018 07:00:30 +0200", 1612
"Wed, 01 Aug 2018 07:00:35 +0200", 1544
"Thu, 02 Aug 2018 07:00:37 +0200", 1515
"Fri, 03 Aug 2018 07:00:29 +0200", 1502
"Sat, 04 Aug 2018 07:00:28 +0200", 1485
"Sun, 05 Aug 2018 07:00:43 +0200", 1488
"Mon, 06 Aug 2018 07:00:29 +0200", 1455
"Tue, 07 Aug 2018 07:00:31 +0200", 1428
"Wed, 08 Aug 2018 07:00:28 +0200", 1386
"Thu, 09 Aug 2018 07:00:38 +0200", 1356
"Fri, 10 Aug 2018 07:00:27 +0200", 1286
"Sat, 11 Aug 2018 07:00:28 +0200", 1237
"Sun, 12 Aug 2018 07:00:28 +0200", 1226
"Mon, 13 Aug 2018 07:00:23 +0200", 1224
"Tue, 14 Aug 2018 07:00:30 +0200", 1143
"Wed, 15 Aug 2018 07:00:35 +0200", 1051
"Thu, 16 Aug 2018 07:00:26 +0200", 909
"Fri, 17 Aug 2018 07:00:34 +0200", 860
"Sat, 18 Aug 2018 07:00:36 +0200", 787
"Sun, 19 Aug 2018 07:00:40 +0200", 770
"Mon, 20 Aug 2018 07:00:30 +0200", 775
"Tue, 21 Aug 2018 07:00:35 +0200", 860
"Wed, 22 Aug 2018 07:00:35 +0200", 935
"Thu, 23 Aug 2018 07:00:35 +0200", 1049
"Fri, 24 Aug 2018 07:00:32 +0200", 1071
"Sat, 25 Aug 2018 07:00:39 +0200", 1093
"Sun, 26 Aug 2018 07:00:29 +0200", 1110
"Mon, 27 Aug 2018 07:00:32 +0200", 1126
"Tue, 28 Aug 2018 07:00:26 +0200", 1166
"Wed, 29 Aug 2018 07:00:27 +0200", 1194
"Thu, 30 Aug 2018 07:00:28 +0200", 1259
"Fri, 31 Aug 2018 07:00:30 +0200", 1321
"Sat, 01 Sep 2018 07:00:26 +0200", 1346
"Sun, 02 Sep 2018 07:00:28 +0200", 1375
"Mon, 03 Sep 2018 07:00:26 +0200", 1390
"Tue, 04 Sep 2018 07:00:25 +0200", 1497
"Wed, 05 Sep 2018 07:00:29 +0200", 1562
"Thu, 06 Sep 2018 07:00:25 +0200", 1617
"Fri, 07 Sep 2018 07:00:34 +0200", 1635
"Sat, 08 Sep 2018 07:00:35 +0200", 1650
"Sun, 09 Sep 2018 07:00:25 +0200", 1648
"Mon, 10 Sep 2018 07:00:35 +0200", 1673
"Tue, 11 Sep 2018 07:00:25 +0200", 1693
"Wed, 12 Sep 2018 07:00:29 +0200", 1717
"Thu, 13 Sep 2018 07:00:27 +0200", 1668
"Fri, 14 Sep 2018 07:00:29 +0200", 1687
"Sat, 15 Sep 2018 07:00:34 +0200", 1723
"Sun, 16 Sep 2018 07:00:30 +0200", 1758
"Mon, 17 Sep 2018 07:00:35 +0200", 1774
"Tue, 18 Sep 2018 07:00:31 +0200", 1790
"Wed, 19 Sep 2018 07:00:32 +0200", 1809
"Thu, 20 Sep 2018 07:00:45 +0200", 1849
"Fri, 21 Sep 2018 07:00:34 +0200", 1860
"Sat, 22 Sep 2018 07:00:43 +0200", 1853
"Sun, 23 Sep 2018 07:00:31 +0200", 1850
"Mon, 24 Sep 2018 07:00:39 +0200", 1838
"Tue, 25 Sep 2018 07:00:35 +0200", 1873
"Wed, 26 Sep 2018 07:00:31 +0200", 1905
"Thu, 27 Sep 2018 07:00:34 +0200", 1952
"Fri, 28 Sep 2018 07:00:40 +0200", 2010
"Sat, 29 Sep 2018 07:00:41 +0200", 2017
"Sun, 30 Sep 2018 07:00:44 +0200", 2046
"Mon, 01 Oct 2018 07:00:34 +0200", 2059
"Tue, 02 Oct 2018 07:00:40 +0200", 2084
"Wed, 03 Oct 2018 07:00:30 +0200", 2096
"Thu, 04 Oct 2018 07:00:38 +0200", 2049
"Fri, 05 Oct 2018 07:00:36 +0200", 2023
"Sat, 06 Oct 2018 07:00:40 +0200", 1983
"Sun, 07 Oct 2018 07:00:46 +0200", 1977
"Mon, 08 Oct 2018 07:00:36 +0200", 1971
"Tue, 09 Oct 2018 07:00:32 +0200", 1930
"Wed, 10 Oct 2018 07:00:30 +0200", 1920
"Thu, 11 Oct 2018 07:00:23 +0200", 1954
"Fri, 12 Oct 2018 07:00:38 +0200", 1985
"Sat, 13 Oct 2018 07:00:31 +0200", 2003
"Sun, 14 Oct 2018 07:00:33 +0200", 1997
"Mon, 15 Oct 2018 07:00:33 +0200", 2015
"Tue, 16 Oct 2018 07:00:34 +0200", 2017
"Wed, 17 Oct 2018 07:00:46 +0200", 2028
"Thu, 18 Oct 2018 07:00:27 +0200", 1986
"Fri, 19 Oct 2018 07:00:27 +0200", 1959
"Sat, 20 Oct 2018 07:00:31 +0200", 1883
"Sun, 21 Oct 2018 07:00:30 +0200", 1880
"Mon, 22 Oct 2018 07:00:32 +0200", 1866
"Tue, 23 Oct 2018 07:00:25 +0200", 1910
"Wed, 24 Oct 2018 07:00:30 +0200", 1842
"Thu, 25 Oct 2018 07:00:32 +0200", 1857
"Fri, 26 Oct 2018 07:00:25 +0200", 1809
"Sat, 27 Oct 2018 07:00:27 +0200", 1854
"Sun, 28 Oct 2018 07:00:27 +0100", 1872
"Mon, 29 Oct 2018 07:00:26 +0100", 1888
"Tue, 30 Oct 2018 07:00:38 +0100", 1885
"Wed, 31 Oct 2018 07:00:27 +0100", 1924
"Thu, 01 Nov 2018 07:00:34 +0100", 1925
"Fri, 02 Nov 2018 07:00:28 +0100", 1817
"Sat, 03 Nov 2018 07:00:33 +0100", 1826
"Sun, 04 Nov 2018 07:00:31 +0100", 1814
"Mon, 05 Nov 2018 07:00:34 +0100", 1810
"Tue, 06 Nov 2018 07:00:34 +0100", 1834
"Wed, 07 Nov 2018 07:00:31 +0100", 1864
"Thu, 08 Nov 2018 07:00:34 +0100", 1923
"Fri, 09 Nov 2018 07:00:39 +0100", 2117
"Sat, 10 Nov 2018 07:00:34 +0100", 2136
"Sun, 11 Nov 2018 07:00:32 +0100", 2143
"Mon, 12 Nov 2018 07:00:34 +0100", 2153
"Tue, 13 Nov 2018 07:00:39 +0100", 2141
"Wed, 14 Nov 2018 07:00:36 +0100", 2157
"Thu, 15 Nov 2018 07:00:41 +0100", 2140
"Fri, 16 Nov 2018 07:00:44 +0100", 2159
"Sat, 17 Nov 2018 07:00:40 +0100", 2195
"Sun, 18 Nov 2018 07:00:44 +0100", 2205
"Mon, 19 Nov 2018 07:00:27 +0100", 2196
"Tue, 20 Nov 2018 07:00:46 +0100", 2195
"Wed, 21 Nov 2018 07:00:39 +0100", 2146
"Thu, 22 Nov 2018 07:00:32 +0100", 2123